Weather History for Sheridan, WY

Change the Weather History Date:

Sunday, June 16, 2013

  Actual Average Record
Temperature  
Mean Temperature 61 °F 62 °F  
Max Temperature 79 °F 77 °F 98 °F (1931)
Min Temperature 43 °F 47 °F 34 °F (1966)
Degree Days  
Heating Degree Days 4 5  
Month to date heating degree days 97 104  
Since 1 June heating degree days 97 104  
Since 1 July heating degree days 7528 7598  
Cooling Degree Days 0 1  
Month to date cooling degree days 4 14  
Year to date cooling degree days 12 18  
Since 1 June cooling degree days 4 14  
Growing Degree Days 12 (Base 50)    
Moisture  
Dew Point 46 °F    
Average Humidity 59    
Maximum Humidity 89    
Minimum Humidity 29    
Precipitation  
Precipitation 0.00 in 0.07 in 1.23 in (1957)
Month to date precipitation 1.93 1.30  
Year to date precipitation 9.25 7.33  
Sea Level Pressure  
Sea Level Pressure 30.02 in    
Wind  
Wind Speed 3 mph (NW)    
Max Wind Speed 12 mph    
Max Gust Speed 14 mph    
Visibility 10 miles    
Events      
T = Trace of Precipitation, MM = Missing Value Source: NWS Daily Summary

Daily Weather History Graph

Daily Weather History Graph

Search for Another Location

Airport:

Trip Planner

Search our weather history database for the weather conditions in past years. The results will help you decide how hot, cold, wet, or windy it might be!

Date:

Astronomy

Jun. 16, 2013 Rise Set
Actual Time 5:21 AM MDT 8:56 PM MDT
Civil Twilight 4:44 AM MDT 9:33 PM MDT
Nautical Twilight 3:55 AM MDT 10:22 PM MDT
Astronomical Twilight 2:50 AM MDT 11:26 PM MDT
Moon 1:18 PM MDT (6/16) 12:45 AM MDT (6/16)
Length of Visible Light 16h 48m
Length of Day
15h 34m
Waxing Crescent, 50% of the Moon is Illuminated
Jun 16
Waxing Crescent
Jun 23
Full
Jun 29
Last Quarter
Jul 8
New
Jul 15
First Quarter

Hourly Weather History & Observations

Time (MDT) Temp. Dew Point Humidity Pressure Visibility Wind Dir Wind Speed Gust Speed Precip Events Conditions
12:53 AM 51.1 °F 45.0 °F 80% 29.99 in 10.0 mi SSW 3.5 mph - N/A   Clear
1:53 AM 46.9 °F 43.0 °F 86% 29.99 in 10.0 mi Calm Calm - N/A   Clear
2:53 AM 46.9 °F 42.1 °F 83% 29.99 in 10.0 mi Calm Calm - N/A   Clear
3:53 AM 45.0 °F 41.0 °F 86% 29.98 in 10.0 mi Calm Calm - N/A   Clear
4:53 AM 44.1 °F 39.9 °F 85% 29.99 in 10.0 mi Calm Calm - N/A   Clear
5:53 AM 46.0 °F 41.0 °F 83% 30.00 in 10.0 mi Calm Calm - N/A   Clear
6:53 AM 53.1 °F 45.0 °F 74% 30.00 in 10.0 mi Calm Calm - N/A   Clear
7:53 AM 57.0 °F 48.0 °F 72% 30.01 in 10.0 mi North 3.5 mph - N/A   Clear
8:53 AM 63.0 °F 48.9 °F 60% 30.02 in 10.0 mi NE 3.5 mph - N/A   Clear
9:53 AM 66.9 °F 48.9 °F 52% 30.02 in 10.0 mi Calm Calm - N/A   Clear
10:53 AM 70.0 °F 46.0 °F 42% 30.02 in 10.0 mi Calm Calm - N/A   Clear
11:53 AM 73.9 °F 39.0 °F 28% 30.02 in 10.0 mi Variable 3.5 mph - N/A   Clear
12:53 PM 73.9 °F 39.0 °F 28% 30.02 in 10.0 mi Calm Calm - N/A   Clear
1:53 PM 75.9 °F 41.0 °F 29% 30.01 in 10.0 mi NW 4.6 mph - N/A   Clear
2:53 PM 75.0 °F 42.1 °F 31% 30.01 in 10.0 mi South 3.5 mph - N/A   Clear
3:53 PM 77.0 °F 43.0 °F 30% 30.00 in 10.0 mi Variable 4.6 mph - N/A   Clear
4:53 PM 78.1 °F 44.1 °F 30% 30.01 in 10.0 mi NNE 4.6 mph - N/A   Clear
5:53 PM 75.9 °F 48.0 °F 37% 30.00 in 10.0 mi SSW 4.6 mph - N/A   Clear
6:53 PM 71.1 °F 54.0 °F 55% 30.01 in 10.0 mi WNW 5.8 mph - N/A   Scattered Clouds
7:53 PM 69.1 °F 53.1 °F 57% 30.03 in 10.0 mi NNW 6.9 mph - N/A   Mostly Cloudy
8:53 PM 64.0 °F 51.1 °F 63% 30.04 in 10.0 mi NNW 8.1 mph - N/A   Mostly Cloudy
9:53 PM 64.0 °F 51.1 °F 63% 30.08 in 10.0 mi West 5.8 mph - N/A   Mostly Cloudy
10:53 PM 61.0 °F 52.0 °F 72% 30.07 in 10.0 mi Calm Calm - N/A   Partly Cloudy
11:53 PM 57.0 °F 51.1 °F 81% 30.08 in 10.0 mi WNW 6.9 mph - N/A   Clear